Wind_Speed
79 78 77 76 73 70 67 64 64 64 63 63 61 59 58 57 57 57 56 54 52 50 51 53 52 52 54 56 56 54 50 49 49 49 50 50 49 48 47 45 40 38 37 34 31 30 30 31 32 32 32 31 30 29 29 29 30 31 32 35 37 39 39 40 41 43 48 54 57 59 59 58 58 59 60 62 65 67 70 73 73 75 80 84 88
77 77 77 76 74 72 70 68 66 64 63 63 63 61 59 58 59 59 58 56 54 52 53 55 54 53 55 57 57 55 52 50 50 50 50 50 49 48 45 41 38 36 35 32 29 29 29 31 33 33 32 32 31 30 30 30 31 32 34 37 39 39 40 41 42 45 50 55 57 58 58 56 57 59 60 61 63 66 70 74 74 76 80 83 87
73 73 72 71 71 71 70 69 67 64 62 62 63 63 60 59 60 61 60 58 55 52 53 55 55 53 55 57 57 54 53 51 50 50 50 49 49 47 42 38 36 36 33 30 28 28 29 31 33 34 33 32 31 31 31 31 33 34 37 38 39 40 41 42 43 46 51 55 57 56 56 56 56 59 61 62 63 65 69 73 73 75 80 83 86
71 70 69 69 69 69 67 66 66 65 62 62 63 62 61 60 60 61 59 56 54 51 51 53 53 52 54 56 56 53 52 51 50 50 50 48 48 45 38 35 35 35 31 28 27 28 30 31 33 34 33 32 32 31 32 33 34 36 38 38 39 40 41 43 45 47 51 55 55 54 55 56 57 59 60 62 64 66 70 72 73 75 79 83 85
71 70 71 70 68 69 70 67 64 62 59 60 61 61 59 58 58 57 55 53 51 49 48 50 50 50 52 55 54 52 51 51 50 50 48 47 46 42 35 33 35 33 30 28 28 29 30 31 33 34 33 32 32 32 33 34 35 36 36 37 39 41 42 43 45 48 51 52 52 52 54 56 58 59 60 60 63 67 71 74 74 76 79 83 85
72 71 72 71 66 65 68 67 64 62 60 60 60 59 57 55 54 53 51 50 49 47 46 47 48 48 50 53 52 50 50 49 49 49 48 46 44 38 33 33 34 31 29 28 29 30 31 31 33 34 33 32 32 32 33 34 34 35 36 37 40 42 42 43 47 49 50 49 49 51 54 56 59 60 60 60 62 66 70 73 74 76 80 83 86
74 72 72 72 68 63 62 62 63 63 62 62 62 58 56 54 53 51 49 48 48 47 45 45 46 45 48 51 51 49 48 47 47 47 47 45 41 36 33 34 34 31 29 29 30 30 31 32 33 34 32 32 33 33 34 34 34 35 37 39 41 41 42 45 48 49 47 46 48 51 54 57 59 60 61 61 63 66 70 71 72 75 79 82 85
75 73 72 70 69 66 62 62 63 62 60 61 61 58 55 54 53 50 48 48 48 48 46 45 45 44 46 50 50 48 46 46 46 47 48 44 39 34 33 34 33 31 30 30 30 31 31 33 34 34 32 33 34 34 35 34 34 35 37 39 40 42 45 46 47 46 45 45 48 52 55 58 59 60 61 62 63 67 71 71 72 75 79 81 84
75 74 73 71 69 68 67 66 67 64 59 56 55 54 53 54 53 50 49 49 49 48 47 45 44 44 45 48 49 48 46 45 46 47 48 43 37 34 34 34 32 31 31 31 31 31 32 33 35 34 33 34 35 35 34 34 34 36 37 39 42 44 44 44 43 42 43 45 49 53 56 58 60 60 61 61 63 68 71 72 73 76 79 82 84
75 73 73 72 72 71 70 69 67 65 61 56 52 50 51 51 51 49 48 49 49 48 46 44 43 43 45 46 48 47 46 45 46 48 47 42 36 35 35 33 32 32 31 31 31 31 32 34 35 35 34 35 35 35 34 33 34 36 38 41 42 42 40 40 40 40 43 47 50 53 56 58 60 61 61 61 63 67 70 71 73 76 79 82 84
75 73 70 70 70 69 68 67 65 62 60 57 52 50 49 49 48 48 47 48 48 46 43 42 42 43 44 45 46 47 46 46 46 47 47 40 36 36 35 33 32 32 31 31 31 31 32 34 35 35 35 35 35 34 34 35 35 36 39 41 40 38 38 39 40 42 45 48 51 54 56 57 59 61 61 61 64 68 70 70 73 76 79 81 84
74 71 69 67 66 65 65 64 61 58 56 55 52 51 50 49 47 47 46 47 47 44 40 40 42 43 44 44 45 46 46 46 47 47 45 39 36 37 35 33 33 32 32 32 31 31 32 34 35 35 35 36 36 35 36 36 36 37 39 40 38 37 39 40 41 43 46 48 51 53 56 58 59 61 61 60 64 68 69 70 73 76 78 81 84
74 71 68 66 64 63 63 61 58 55 55 53 51 51 51 50 49 48 47 48 47 42 39 40 42 43 43 43 44 44 45 46 47 46 44 39 36 37 35 33 33 33 33 33 31 32 33 34 34 34 35 37 38 37 37 38 37 37 39 39 39 39 41 41 43 45 47 48 51 54 57 60 60 61 61 61 64 67 69 71 73 75 78 80 84
75 71 69 66 63 62 61 59 55 54 54 53 53 53 52 51 51 50 50 50 48 42 39 41 44 44 43 43 42 42 44 46 47 45 43 38 36 37 36 33 33 33 34 33 32 33 34 34 34 35 36 37 38 38 38 38 38 38 38 39 40 40 41 42 44 46 46 49 52 56 59 62 62 61 61 62 64 67 69 71 73 75 77 80 83
76 73 70 67 65 63 61 57 54 53 54 55 55 54 53 52 53 53 53 52 50 45 42 43 45 45 44 43 41 41 44 47 46 45 43 39 37 38 36 34 33 33 34 34 33 34 36 35 35 36 37 38 38 38 38 38 39 38 37 38 40 41 42 42 44 46 47 50 54 57 60 63 62 61 61 63 64 66 69 71 73 74 77 80 83
78 74 70 67 65 64 62 58 54 52 53 55 55 53 53 53 55 55 55 55 54 48 44 44 47 47 46 44 41 41 46 47 45 45 43 39 38 38 37 35 34 33 35 35 33 35 36 36 37 38 39 40 39 37 37 38 38 38 37 39 42 44 44 43 44 46 49 52 55 57 60 63 62 61 61 63 64 67 69 71 72 74 77 80 84
80 75 70 67 66 65 64 60 54 51 52 56 56 55 55 55 57 58 57 57 57 52 47 47 50 50 49 45 42 43 47 48 45 45 44 40 38 38 38 37 35 35 36 35 34 35 37 38 39 40 41 42 39 36 36 37 36 37 38 41 44 46 46 46 46 47 50 53 56 59 61 62 61 60 61 62 64 67 70 71 72 74 77 80 84
81 77 72 69 67 67 65 61 56 51 52 56 57 57 58 58 59 61 60 60 59 56 52 51 52 52 51 47 44 44 48 48 46 45 45 41 39 38 38 38 37 37 38 36 35 36 38 40 41 41 43 44 39 34 35 36 35 36 38 40 44 46 47 46 47 49 51 53 57 60 61 61 60 59 60 62 65 68 69 70 72 74 77 81 84
81 79 75 71 69 67 64 61 56 53 55 58 60 61 62 61 62 63 62 62 61 59 55 54 54 55 53 50 46 45 49 50 47 46 46 42 39 39 40 39 38 39 39 37 35 36 39 42 42 42 45 45 39 34 36 35 35 39 41 42 44 46 47 48 49 51 53 54 58 60 61 61 59 58 59 62 65 68 69 70 72 74 77 81 84
80 79 77 73 70 67 64 61 56 54 56 59 60 62 63 62 62 63 64 64 64 62 58 56 57 57 56 53 49 47 50 51 49 47 46 43 41 41 40 39 39 40 40 38 36 37 40 42 43 42 43 42 38 36 37 37 39 44 46 45 44 43 43 45 49 52 53 55 59 60 60 61 59 57 59 63 66 68 69 70 72 75 78 81 85
77 75 74 73 71 68 64 61 57 54 53 53 54 59 64 65 63 64 66 67 67 65 62 60 60 60 59 56 52 49 52 53 50 48 46 44 43 42 41 40 40 41 41 38 37 38 39 41 41 38 36 38 39 40 41 41 43 46 46 44 42 41 41 44 49 53 55 57 59 60 60 60 58 57 60 64 66 67 68 69 73 75 78 82 85
74 71 68 69 70 67 60 54 52 53 51 49 51 57 63 66 66 66 69 71 70 67 64 63 63 62 61 59 54 51 53 55 53 50 47 45 44 42 41 41 42 42 41 39 39 38 37 39 40 37 35 40 43 43 44 44 45 47 47 44 42 43 44 47 52 55 56 57 58 59 60 59 57 57 61 64 66 67 68 70 73 75 78 82 85
72 69 67 66 65 62 56 48 46 49 49 48 51 56 60 65 68 70 74 76 74 70 67 66 66 65 63 62 57 53 54 57 55 51 48 46 44 43 43 44 44 43 42 41 40 39 37 41 43 40 39 42 44 44 45 46 45 47 47 45 45 47 50 52 54 56 56 57 58 60 60 58 56 58 61 64 66 67 68 71 74 76 80 83 86
67 65 65 65 63 62 59 51 45 48 50 50 52 57 62 67 71 73 75 74 71 70 69 68 68 67 66 65 60 54 55 58 56 52 50 47 45 45 45 45 45 46 44 43 42 40 40 44 45 42 42 43 44 45 47 46 46 47 47 47 49 52 53 54 53 54 56 57 60 61 60 56 55 59 62 64 65 66 67 71 74 77 81 85 87
63 61 61 62 63 65 63 56 49 48 49 51 53 57 62 67 71 73 72 70 67 67 68 69 69 68 67 67 62 56 57 60 58 54 51 49 47 46 46 46 48 48 46 45 44 42 43 46 46 45 44 44 43 45 46 46 46 48 48 49 52 54 55 53 52 53 56 59 61 60 56 54 56 59 62 63 64 65 67 71 74 77 81 84 86
60 58 56 56 59 62 61 59 55 47 41 43 50 56 59 64 70 73 71 68 66 67 68 69 70 69 68 68 63 58 58 61 59 55 52 50 48 47 47 48 49 48 48 47 45 43 43 46 47 46 45 46 46 46 45 46 48 50 51 53 55 55 54 51 52 55 58 59 59 56 53 53 57 60 62 64 64 65 67 71 74 78 81 83 85
61 58 55 51 51 52 55 57 57 48 38 37 44 49 50 52 58 61 61 61 61 63 65 67 69 69 69 68 65 60 59 61 61 57 53 52 50 48 48 49 50 49 49 48 46 45 45 46 47 47 46 47 48 46 45 46 49 52 54 55 56 55 52 52 54 57 58 58 55 52 52 54 58 60 64 65 65 66 68 71 75 79 82 83 85
62 62 58 51 47 48 51 52 49 43 41 42 45 49 49 47 47 48 50 53 54 56 59 64 67 68 69 70 68 62 60 62 63 58 54 54 52 49 49 51 51 50 49 48 48 47 46 47 49 49 47 46 47 46 46 47 49 52 53 55 55 54 54 55 57 57 56 55 53 51 52 56 59 62 65 66 66 68 70 73 77 80 82 83 85
59 64 59 53 51 49 48 49 47 43 46 48 49 53 53 51 48 47 47 50 52 53 54 59 65 67 68 69 67 64 62 64 64 60 56 54 53 51 52 53 52 50 49 49 49 47 47 50 51 50 47 47 48 49 49 49 51 53 54 54 55 56 57 57 56 55 55 53 51 51 54 58 61 63 65 65 66 69 72 75 79 81 82 83 85
58 64 60 56 56 51 48 51 53 51 52 54 55 57 56 53 52 52 51 50 50 51 53 56 60 63 65 66 66 65 65 66 63 59 56 55 54 54 54 53 52 50 50 49 48 48 48 48 48 49 49 50 50 51 50 51 54 55 54 56 58 58 58 57 55 54 54 52 50 53 57 59 61 64 65 65 67 70 73 76 79 80 81 82 85
58 65 63 60 59 54 51 54 56 54 54 56 57 59 59 55 53 55 57 55 51 51 53 55 57 58 60 63 65 66 66 65 63 60 58 56 56 56 56 55 53 51 50 49 48 48 48 46 46 49 53 54 54 52 52 54 57 56 56 58 60 59 58 56 54 55 55 52 52 55 58 59 62 64 65 66 68 71 74 76 77 78 80 83 86
58 64 65 63 61 57 55 57 57 55 54 55 56 57 56 54 54 57 62 62 57 54 55 57 56 57 57 58 60 64 66 65 64 62 59 58 58 58 57 56 53 52 50 48 48 49 51 50 50 53 56 58 56 54 54 57 57 55 56 59 60 58 56 55 55 56 55 53 54 56 58 60 62 64 65 67 70 73 75 75 75 77 80 83 88
59 65 64 62 61 60 59 57 54 50 47 47 49 50 51 51 53 58 62 64 63 61 60 60 59 57 55 53 56 61 65 66 65 63 61 60 60 60 58 57 55 53 51 49 50 52 53 52 51 52 54 56 56 56 56 57 55 54 57 60 59 57 56 56 56 56 55 54 56 57 58 60 62 65 67 68 71 73 74 74 74 77 81 85 89
63 67 65 63 63 61 59 54 50 46 44 42 41 42 45 49 54 58 62 66 68 67 65 62 61 58 54 51 54 59 63 65 66 64 63 62 62 61 60 58 56 55 53 51 51 51 51 52 52 51 51 54 57 58 57 55 53 55 57 59 58 58 58 58 57 56 55 56 57 58 59 61 63 65 68 70 71 72 72 73 75 79 83 87 90
68 69 66 64 62 60 58 55 50 47 45 43 40 39 43 49 54 59 66 70 70 69 68 65 62 60 57 53 53 56 59 62 65 65 65 64 63 63 62 60 58 57 55 53 53 53 54 55 55 55 55 57 59 58 56 55 56 56 56 57 58 59 59 58 57 57 57 57 57 58 61 63 64 66 68 70 71 70 71 73 77 82 86 88 91
68 70 67 61 58 60 62 58 52 48 44 37 34 39 46 49 51 59 67 69 63 59 60 60 59 58 57 54 53 54 55 59 62 65 66 66 65 64 63 61 60 59 57 55 55 55 55 54 55 57 58 59 58 57 57 59 59 58 56 57 58 59 59 59 60 60 59 58 58 59 62 64 66 67 68 69 68 68 71 76 81 84 87 89 91
65 69 67 61 59 64 67 61 56 54 45 29 29 45 54 53 53 57 62 62 57 52 51 53 55 56 54 51 52 54 56 57 59 61 63 65 66 66 65 63 60 59 58 56 55 54 54 53 53 56 58 58 59 61 63 63 61 59 58 60 60 61 61 62 64 63 61 59 60 61 63 66 68 67 67 66 66 69 74 79 83 86 88 90 92
62 65 67 66 66 70 70 64 62 60 52 40 39 52 55 51 51 52 49 48 53 55 54 54 55 55 51 48 51 57 59 59 58 58 60 62 64 64 64 62 60 59 58 57 55 54 53 53 54 56 57 59 61 63 64 63 61 60 60 61 62 63 64 65 65 64 61 61 63 64 66 67 67 65 64 66 69 74 78 82 84 87 88 90 92
63 65 66 69 72 74 71 67 66 65 62 59 61 62 55 47 44 42 36 34 40 48 51 54 56 55 49 48 53 59 62 61 59 59 60 62 63 62 61 60 59 59 58 57 56 55 54 54 56 58 60 61 63 64 63 62 60 59 59 60 62 64 66 65 64 62 61 63 66 67 66 65 63 63 65 69 73 77 80 83 85 87 88 91 93
66 67 66 67 72 75 73 70 68 67 67 68 68 67 63 55 47 42 39 38 39 42 47 54 60 59 54 55 60 63 64 65 64 63 63 64 64 62 59 58 59 60 59 57 56 56 56 57 57 59 62 63 62 62 62 60 60 61 61 62 64 66 66 65 63 61 62 65 68 67 64 62 62 65 70 74 77 79 82 84 85 87 89 91 94
70 70 68 67 70 75 76 73 71 69 69 70 70 68 67 64 57 52 50 48 48 48 50 54 61 63 62 65 70 71 69 68 67 66 65 65 65 63 61 60 60 60 59 57 56 56 57 58 58 59 61 61 59 59 60 60 63 66 66 65 66 67 66 64 62 62 64 66 67 64 62 63 67 71 74 76 79 81 83 84 85 87 90 92 94
73 73 71 70 72 76 77 76 75 74 73 73 71 69 68 66 63 59 57 56 56 57 57 58 62 66 69 73 78 79 76 72 69 68 68 67 67 66 64 63 63 63 61 60 59 58 58 59 59 58 59 59 60 61 62 64 67 71 70 68 67 66 65 64 63 64 65 67 65 63 64 67 72 74 75 77 80 81 82 84 86 88 91 93 95
76 75 73 72 74 77 79 79 79 79 78 77 73 69 69 70 68 64 63 63 63 63 62 63 65 68 71 74 77 77 77 75 72 70 70 70 69 68 66 64 64 65 65 64 62 61 61 62 61 60 60 61 63 66 68 69 72 74 73 70 67 65 65 65 64 65 67 67 66 66 69 72 74 74 76 78 79 81 82 84 87 89 92 94 95
79 78 75 74 74 77 80 83 84 84 84 82 78 72 71 73 74 72 69 68 67 66 65 66 68 69 70 71 71 71 72 72 71 71 71 71 71 70 67 65 65 66 67 66 65 64 64 64 64 64 64 66 69 72 73 73 74 75 73 70 67 65 66 66 65 66 69 69 69 70 73 74 73 73 75 78 80 81 83 86 88 91 93 94 96
80 81 78 75 74 75 78 82 86 88 89 89 86 81 77 77 78 78 75 72 70 68 65 64 65 65 65 66 67 68 69 70 71 72 72 72 71 70 68 67 66 66 67 66 66 66 66 66 66 67 68 70 73 75 74 73 72 73 73 72 68 65 65 66 67 69 71 72 72 73 73 73 73 73 76 79 81 83 85 87 90 92 94 95 97
77 83 84 81 78 76 76 79 82 86 88 89 90 89 88 86 86 84 82 80 79 77 74 71 69 69 68 69 69 69 70 71 72 71 71 71 71 70 68 67 66 65 66 66 65 65 65 66 67 69 70 71 72 72 71 70 70 71 73 72 68 65 66 67 69 70 73 75 74 72 71 72 74 76 78 81 83 85 87 89 91 93 95 97 98
67 76 84 87 86 83 81 80 81 82 85 87 88 89 91 93 94 95 93 92 90 89 88 85 82 80 79 77 75 73 74 74 73 71 70 70 70 69 68 66 65 65 65 66 66 66 66 67 68 69 69 68 68 69 69 70 70 70 69 68 66 65 66 68 69 72 77 78 74 70 71 74 77 80 81 83 85 87 90 92 94 95 97 99 100
58 65 73 81 86 88 88 87 86 85 86 87 89 89 91 93 96 99 100 100 98 97 95 93 90 88 85 83 81 79 78 76 75 73 72 72 70 69 67 67 66 64 64 65 66 66 66 65 64 65 66 67 67 67 68 69 68 67 67 66 66 66 67 68 71 76 80 78 73 71 75 79 81 83 84 86 87 90 92 94 96 97 99 101 102
54 58 63 68 74 79 83 86 88 89 89 89 90 90 90 91 93 97 100 101 101 100 99 97 95 93 91 89 86 82 79 76 74 74 73 71 70 68 67 66 65 63 63 64 64 63 61 61 61 63 65 67 67 67 67 67 67 68 68 68 68 67 68 71 75 79 79 76 74 76 80 82 84 85 87 89 90 92 94 96 98 100 101 102 102
53 55 58 61 64 68 71 75 78 82 84 86 88 89 88 87 89 91 94 95 96 97 96 95 94 92 89 86 83 80 76 73 71 70 69 69 68 67 65 64 64 63 62 62 61 60 60 61 62 63 64 66 68 68 68 68 68 69 69 69 70 71 72 75 77 78 77 76 78 81 83 84 86 88 89 91 93 94 96 98 100 102 103 103 103
54 55 56 57 58 60 62 63 65 68 70 73 77 79 81 81 83 85 86 86 86 86 85 85 83 81 79 77 75 73 71 69 68 67 65 65 65 64 63 62 62 62 62 62 61 61 63 64 64 63 64 65 68 69 70 70 70 70 71 72 73 74 75 76 76 77 78 80 82 84 85 87 88 89 91 93 95 96 98 100 101 103 103 103 104
Wind_Direction
237 240 241 242 244 247 250 252 253 253 252 253 255 256 257 259 260 262 264 265 266 267 269 271 272 272 273 275 277 278 279 279 280 282 284 286 289 291 293 296 298 295 291 292 292 290 292 295 295 297 300 300 298 298 299 302 305 308 311 316 318 321 322 322 321 320 322 328 331 332 334 336 336 337 339 339 340 341 343 344 344 345 347 348 348
238 240 242 244 246 248 249 251 252 252 252 253 254 255 257 258 260 262 264 265 267 268 269 270 271 271 272 274 276 277 278 278 279 281 283 285 289 290 293 296 295 291 289 290 289 289 292 294 296 298 300 299 297 297 298 302 304 306 311 315 318 320 322 322 322 322 323 328 331 331 333 335 336 336 337 339 340 341 342 343 343 344 346 348 348
237 240 243 246 248 248 249 250 251 253 254 254 255 256 257 258 259 262 264 266 267 268 268 269 270 270 271 273 275 276 277 277 279 280 282 286 288 289 292 295 291 288 288 287 287 289 292 294 296 299 300 299 297 297 299 303 305 308 311 315 317 320 322 322 322 324 325 328 331 331 331 334 336 336 336 338 340 341 341 342 342 343 346 348 348
236 237 240 245 248 249 249 250 251 253 255 255 255 256 256 257 259 261 264 266 267 267 267 267 268 269 269 271 273 275 276 277 278 279 282 285 286 287 292 291 286 286 285 283 285 289 292 295 298 300 301 300 298 298 300 303 306 309 313 316 318 321 322 321 322 325 327 328 329 330 330 332 335 335 336 338 339 340 341 341 341 343 345 347 348
233 233 234 239 245 248 248 248 249 251 254 255 255 255 256 257 258 260 263 265 265 265 265 266 267 267 267 269 271 273 274 276 277 279 281 283 283 287 290 286 282 283 281 281 284 288 292 296 298 299 300 300 299 297 299 303 307 311 314 317 320 321 321 320 322 326 329 328 327 329 330 330 332 334 336 338 339 339 340 340 340 342 344 346 347
232 232 232 233 237 242 245 246 246 249 251 254 255 255 256 257 258 260 262 263 264 264 264 264 265 266 265 267 270 272 273 274 276 278 279 280 282 287 287 281 279 278 277 279 284 288 292 295 296 297 298 298 297 297 299 304 309 312 315 318 320 320 320 320 323 326 327 327 326 327 328 329 331 333 335 338 339 339 339 339 339 342 344 346 347
233 233 234 233 232 236 242 244 246 249 251 252 253 254 256 257 258 259 261 262 263 263 263 263 264 264 265 266 269 271 272 273 275 276 277 278 282 285 282 277 276 274 273 278 283 288 291 293 293 294 296 297 296 297 300 305 309 312 317 319 319 319 319 321 324 325 325 325 325 325 327 328 330 332 335 338 339 338 338 338 339 341 343 345 346
232 232 233 234 234 236 240 245 248 250 251 251 252 253 255 257 258 259 260 261 262 262 262 262 263 264 264 265 268 270 271 272 273 274 275 277 281 281 276 273 273 272 273 278 284 288 291 292 292 293 295 295 296 298 303 307 311 315 319 320 318 318 320 321 322 323 323 324 325 325 326 328 329 332 335 338 338 337 337 337 338 340 342 344 345
232 231 231 233 235 237 241 245 248 249 250 251 253 253 254 255 257 259 260 260 261 262 262 262 263 263 262 264 266 268 269 270 271 272 274 277 279 276 271 269 269 269 273 279 284 288 292 293 293 293 294 296 298 302 306 309 313 317 319 319 318 318 320 320 321 321 322 324 325 326 326 327 329 332 335 337 337 335 335 336 337 339 342 343 345
233 232 231 233 236 239 242 244 246 247 248 250 253 254 255 255 256 258 259 259 260 261 262 263 262 262 261 262 264 267 267 267 268 270 273 276 276 271 268 267 267 268 273 279 283 288 293 295 295 294 294 295 299 303 307 311 314 316 317 318 319 320 320 320 321 323 324 325 326 326 327 328 329 331 335 337 335 334 335 335 336 339 341 343 344
232 233 233 234 236 238 240 242 243 245 246 248 252 255 256 257 257 257 258 258 259 261 262 262 262 261 261 262 264 265 266 266 267 269 272 274 271 267 267 266 265 268 273 278 282 288 293 297 298 297 295 294 298 302 306 310 311 312 315 318 320 321 321 322 323 324 325 326 327 328 329 330 330 332 335 336 334 333 334 335 336 338 340 342 343
232 233 234 234 235 237 239 241 242 243 245 248 251 253 256 259 259 258 258 258 259 260 260 261 261 261 262 263 264 266 266 266 267 269 271 272 268 265 265 264 264 268 273 276 281 287 293 297 299 299 297 295 297 301 304 306 307 310 314 317 319 320 321 322 323 323 325 327 329 330 332 332 331 332 335 335 333 333 333 334 335 337 339 341 342
233 233 234 235 235 236 239 240 242 243 245 248 250 253 257 260 260 258 257 257 258 259 259 259 260 261 263 265 266 268 267 266 267 269 271 270 265 263 263 262 263 268 272 276 281 286 291 296 299 300 300 298 297 299 301 303 305 308 311 313 316 318 320 322 322 321 323 326 329 332 333 334 333 332 335 335 333 332 333 333 334 336 338 340 342
234 233 234 236 236 236 238 240 241 243 245 247 251 255 257 258 258 258 257 257 258 257 257 258 260 262 264 266 268 269 267 266 268 270 271 268 263 262 262 260 262 267 271 276 280 285 290 294 297 300 301 300 299 298 299 300 303 305 307 309 312 315 320 323 323 321 321 324 328 331 334 335 334 333 334 335 332 332 332 332 333 336 338 339 341
234 233 232 234 236 237 238 240 241 243 245 246 250 255 257 256 255 256 256 257 258 256 255 258 260 262 263 265 267 267 265 267 270 271 271 268 262 261 261 260 262 266 271 276 280 285 290 293 296 299 302 303 302 299 298 299 301 302 303 305 308 312 318 323 323 320 320 323 327 330 333 334 334 333 334 333 331 331 331 331 333 335 337 338 340
233 232 232 232 234 237 238 239 239 240 243 245 247 253 257 256 254 255 256 257 258 257 256 257 259 261 262 264 267 267 266 269 272 272 271 267 262 261 261 261 262 266 271 276 280 285 290 294 296 298 301 303 303 301 299 299 300 300 302 304 306 309 313 318 320 319 320 322 326 330 332 333 333 333 332 331 330 331 331 331 332 334 335 337 339
233 232 231 231 232 234 237 238 238 237 241 245 248 252 256 256 254 254 255 256 258 258 257 256 258 260 263 265 266 266 267 270 272 271 270 267 262 261 262 262 263 266 270 274 280 286 290 294 295 298 301 303 303 302 300 299 300 301 303 305 306 308 311 314 317 319 321 323 326 329 330 332 333 332 331 330 330 330 330 330 331 333 335 337 338
232 232 231 230 230 232 234 236 236 235 238 243 247 250 255 258 256 254 255 256 258 259 258 258 259 261 263 264 265 266 267 269 271 271 270 268 263 261 263 263 264 267 271 275 281 286 289 292 295 299 301 301 302 301 297 297 301 305 307 309 308 309 311 313 315 319 322 324 326 328 330 331 331 331 330 329 329 329 329 329 330 333 334 336 338
231 232 231 230 230 231 233 234 234 233 234 239 245 250 255 257 256 254 255 256 258 259 259 259 260 262 263 263 264 265 266 268 269 270 270 269 265 262 263 264 265 268 272 276 281 286 289 293 297 300 300 299 298 296 294 298 306 310 311 313 311 310 311 312 313 317 321 323 325 327 329 329 329 328 328 328 328 328 328 328 330 332 334 335 337
230 230 230 229 229 230 232 233 233 232 234 239 244 249 252 256 257 256 256 257 258 260 260 260 260 261 262 263 263 264 265 267 268 269 269 269 266 263 263 265 266 269 273 277 282 287 291 295 298 300 301 299 297 296 298 305 311 312 312 314 312 309 308 309 311 315 318 321 324 326 327 327 327 326 326 327 327 327 326 327 329 332 333 335 336
230 229 229 229 228 228 230 231 231 232 234 239 245 250 254 257 259 258 257 257 258 259 259 259 259 261 262 262 262 263 264 266 267 268 269 269 266 265 265 265 266 269 273 278 283 287 292 296 299 302 304 303 302 303 304 307 310 311 312 313 312 309 308 308 310 313 316 320 323 325 325 325 325 324 325 326 326 326 325 326 329 331 332 334 335
229 229 228 229 229 229 230 230 229 228 229 233 242 251 257 259 259 259 259 258 258 258 258 258 258 260 261 261 261 261 263 264 266 266 268 268 266 266 266 265 266 270 274 278 282 285 290 294 297 301 304 304 303 304 305 305 306 309 311 310 310 309 309 309 310 312 316 320 322 322 323 324 323 323 325 326 325 324 324 326 328 330 332 333 334
228 227 226 226 226 226 225 225 227 228 226 225 232 242 250 256 259 260 260 259 258 257 257 257 258 258 259 260 260 260 261 263 264 265 267 267 265 264 265 266 267 270 273 277 280 283 288 292 294 297 300 301 302 303 304 303 305 308 308 308 309 310 310 310 311 314 317 319 319 320 321 322 322 323 324 325 324 323 324 326 328 330 331 332 333
228 226 225 224 221 219 219 221 226 232 232 228 230 238 246 252 256 259 260 260 259 257 256 257 257 257 257 259 259 258 260 261 263 265 266 265 263 263 264 266 267 270 273 276 279 283 287 289 292 294 296 298 300 301 303 303 304 304 304 305 308 310 310 310 312 314 316 317 316 318 320 320 321 322 324 324 323 323 324 326 328 329 330 331 333
228 227 224 222 219 217 218 217 218 226 234 233 232 236 243 248 252 256 261 262 261 259 256 255 255 255 256 257 258 257 258 260 262 264 264 263 262 262 263 265 267 269 273 275 278 283 286 289 292 294 295 297 298 298 301 304 304 301 301 303 306 308 309 311 313 314 314 314 315 317 318 318 320 322 323 323 323 323 324 325 327 328 329 331 333
227 225 220 218 219 218 217 214 213 217 229 234 233 235 241 248 253 259 264 265 264 261 258 255 254 254 255 256 257 255 256 259 261 262 262 262 261 261 262 264 265 268 272 275 278 282 286 289 291 291 293 295 295 295 301 305 303 301 301 301 304 307 309 310 311 311 311 313 314 315 316 317 319 322 322 322 322 323 323 325 326 327 328 330 331
227 222 216 214 214 211 208 208 209 211 216 223 230 236 244 255 263 265 266 267 265 262 259 255 254 253 253 255 255 254 254 257 260 260 261 261 260 261 261 262 264 267 271 274 277 281 284 287 288 289 290 291 290 293 300 303 302 301 301 301 303 306 308 308 308 309 310 311 312 312 314 316 318 320 321 322 322 322 323 324 324 326 327 329 330
224 217 212 208 202 197 199 200 203 210 216 216 222 234 247 261 268 266 266 268 266 263 259 255 253 252 252 253 254 253 254 256 258 259 260 260 261 261 261 262 264 267 270 274 277 280 283 285 286 287 289 287 287 291 297 300 301 302 303 303 303 303 305 306 308 308 309 310 310 310 312 315 316 318 320 321 321 321 322 322 323 325 326 328 329
218 211 207 203 195 192 197 198 199 210 219 218 221 233 247 260 266 265 267 270 267 265 263 258 254 253 253 254 255 254 253 254 256 258 260 261 261 261 260 262 265 268 271 274 276 279 284 286 285 287 288 286 287 291 293 295 300 302 303 303 301 301 304 307 307 307 308 309 309 309 311 313 315 318 320 320 319 320 321 322 323 324 326 327 329
215 206 200 197 192 189 193 198 200 206 213 216 220 228 238 251 258 261 265 269 268 267 267 263 259 257 255 256 256 254 253 254 257 258 260 260 259 260 261 262 265 268 271 274 276 280 285 284 281 282 284 286 288 290 289 293 299 302 301 301 301 303 306 307 307 307 309 309 308 307 310 313 316 318 319 318 318 319 320 322 323 324 325 327 328
211 202 195 192 191 189 190 197 202 205 209 213 216 221 229 238 244 249 256 262 266 268 268 265 263 261 258 258 257 255 255 255 256 257 258 259 259 260 261 263 265 268 271 274 277 280 281 278 273 274 278 282 284 286 286 292 298 301 301 301 302 303 304 305 306 308 309 308 307 308 310 314 317 318 317 316 317 319 320 321 322 323 324 326 328
206 197 191 188 189 191 193 198 202 205 209 212 214 217 224 232 236 241 249 256 262 266 268 267 265 263 262 261 260 257 255 255 255 256 257 258 259 260 262 264 266 268 270 273 275 275 275 273 271 272 276 278 280 282 286 291 297 300 300 301 301 301 302 304 306 306 306 306 307 309 313 316 317 316 315 316 317 319 320 320 320 322 323 326 327
199 191 188 187 190 194 198 200 201 203 207 211 213 217 222 228 233 239 246 253 259 264 267 266 264 264 265 264 261 258 255 254 255 255 256 258 259 261 263 265 266 268 270 272 273 274 274 274 274 276 278 278 279 283 287 292 296 298 298 298 298 298 299 302 304 304 304 306 308 311 313 315 315 314 314 316 317 318 318 318 319 321 323 325 327
192 187 187 189 192 195 198 199 199 199 202 207 213 219 223 226 231 236 243 250 257 263 266 265 262 261 262 262 260 258 256 255 255 255 256 257 259 261 263 265 266 268 269 270 271 272 271 272 274 277 278 276 278 284 289 291 294 297 297 297 296 296 297 299 300 301 303 306 308 311 312 313 313 313 314 315 316 317 316 317 318 320 323 325 326
188 187 188 192 195 196 197 200 201 201 204 209 213 219 226 231 234 239 244 250 256 261 264 263 261 260 260 259 259 259 257 256 255 255 256 257 258 260 262 264 265 266 267 267 268 268 268 270 273 276 275 276 280 285 287 289 292 296 297 295 294 294 295 297 298 300 303 306 308 310 311 311 312 313 313 314 315 315 315 316 318 321 323 324 326
189 189 191 195 197 197 198 201 202 201 203 211 222 227 227 229 234 239 244 248 252 258 260 260 260 260 260 258 258 259 259 258 256 256 256 257 258 260 261 262 264 266 266 267 267 268 270 272 273 273 274 277 280 283 285 288 291 295 295 293 291 292 294 296 298 301 304 306 306 308 309 310 311 312 313 312 312 313 314 316 318 321 322 324 325
192 192 194 198 199 198 198 201 203 201 196 202 230 233 226 224 230 237 241 242 243 247 251 252 254 258 260 259 257 258 259 259 258 258 258 259 260 260 261 262 265 267 268 268 267 268 270 272 272 273 276 278 281 283 286 288 291 293 293 291 290 291 294 296 299 301 304 305 305 306 308 309 311 311 311 310 310 312 314 316 318 320 322 323 324
195 195 197 199 200 199 198 199 202 200 191 187 209 224 222 220 226 234 240 242 241 240 242 243 246 252 257 259 260 261 260 258 258 259 260 261 261 261 261 263 264 266 267 268 268 269 271 271 272 274 277 278 281 284 286 287 289 291 291 289 289 291 294 297 299 301 303 304 304 307 309 310 310 309 308 308 310 312 314 316 318 320 321 322 324
200 199 199 200 200 200 199 198 199 201 198 196 205 215 216 214 218 224 229 234 237 237 238 241 244 246 248 251 254 256 257 258 259 261 262 262 262 262 262 262 263 264 265 267 268 269 270 270 271 274 276 278 281 283 284 285 288 290 289 289 290 293 295 297 298 301 303 304 306 308 310 309 307 306 306 308 310 312 314 316 318 319 320 322 324
203 203 202 201 199 200 201 200 199 202 205 206 209 214 214 211 211 214 215 218 224 229 235 242 244 243 242 244 245 247 250 254 257 260 262 263 263 263 263 262 261 263 264 266 267 268 269 270 272 275 278 280 283 284 284 285 287 288 289 290 292 293 295 296 298 301 303 305 307 308 308 306 305 305 307 309 310 312 314 316 317 319 320 322 324
203 204 205 204 201 200 201 202 201 202 206 209 211 214 216 214 211 211 212 216 220 223 228 236 241 240 239 241 244 245 248 252 254 257 260 262 264 264 263 262 262 264 265 266 267 269 270 272 274 276 279 282 283 282 282 284 287 288 289 291 291 292 294 296 298 301 304 306 306 306 304 304 304 305 307 309 311 313 315 316 317 318 320 322 323
203 204 207 207 206 204 204 204 204 205 207 209 211 214 216 215 212 211 212 215 218 222 225 231 237 238 238 240 244 246 249 251 253 255 257 259 261 262 262 262 262 263 265 266 267 269 271 273 276 278 280 281 281 280 281 283 285 286 288 290 290 291 293 295 297 300 304 305 304 303 302 303 304 305 307 309 311 313 314 315 316 318 320 321 323
206 206 207 208 208 208 208 208 209 209 210 210 211 213 215 215 214 214 216 216 218 221 225 230 235 239 241 242 244 246 248 251 253 255 256 258 259 260 261 262 261 262 262 263 265 267 269 272 274 276 276 277 277 277 279 282 283 285 286 287 288 290 292 293 294 298 302 303 302 301 301 303 304 305 307 309 311 313 313 314 316 318 319 321 322
209 209 208 208 209 210 211 211 212 213 214 214 214 215 217 217 217 217 220 221 221 224 228 232 236 240 243 244 245 247 250 252 255 256 257 258 259 260 261 262 262 261 262 262 264 266 268 270 272 273 273 273 274 276 279 281 282 283 284 284 286 288 290 290 292 295 299 301 302 301 301 302 303 304 307 309 311 312 312 313 315 317 318 320 322
209 210 210 210 211 212 213 213 214 216 218 219 220 220 220 220 220 221 223 225 227 230 233 235 236 238 241 245 249 253 255 256 257 257 258 259 259 260 261 261 262 262 263 263 264 265 267 268 270 270 271 273 275 277 279 280 280 281 281 283 284 287 287 287 288 291 296 300 301 300 299 300 302 304 307 309 310 310 311 313 315 316 318 319 321
210 211 213 213 213 215 216 217 217 218 220 222 224 224 224 224 224 226 228 230 232 235 238 239 239 241 244 249 254 256 257 257 258 258 258 259 259 260 260 261 262 263 264 264 265 266 267 268 268 269 271 273 275 276 276 276 277 278 280 283 285 286 286 285 286 289 295 298 299 298 298 299 301 303 306 307 308 309 310 312 314 315 317 318 319
213 214 215 216 216 218 219 220 221 221 222 224 226 227 227 227 228 229 232 234 237 239 241 243 244 246 249 253 256 258 259 259 258 257 258 258 259 259 260 261 262 262 263 264 265 265 266 267 269 270 270 270 270 271 272 274 276 278 281 284 286 285 285 285 287 290 294 296 296 295 297 299 300 302 304 305 306 307 309 311 313 314 316 317 318
217 216 216 217 218 219 221 222 224 225 226 227 229 230 231 231 231 232 234 236 238 240 242 244 246 248 251 254 256 258 259 259 257 256 256 257 258 259 260 260 261 262 263 264 265 265 266 266 267 268 268 268 268 270 273 275 278 280 282 284 285 285 286 287 290 291 292 293 293 294 296 298 299 301 302 303 304 306 308 310 312 313 314 315 316
222 221 219 219 219 221 222 223 225 226 228 230 232 234 235 236 236 236 237 238 240 241 244 246 248 251 253 255 256 257 257 256 256 256 256 257 258 259 259 260 261 261 261 262 262 263 264 264 264 265 267 269 271 272 274 276 279 281 282 283 283 285 287 288 289 289 290 290 291 292 295 297 298 299 300 301 302 305 307 309 310 311 313 314 315
225 225 224 222 221 221 222 224 225 226 228 230 232 234 235 237 238 239 240 241 242 244 246 248 250 252 253 253 253 253 253 253 254 256 256 257 258 258 258 258 259 258 258 258 260 261 262 263 264 265 266 268 270 272 274 276 277 278 279 280 281 283 285 286 286 286 287 287 289 291 293 295 297 297 298 300 302 304 306 307 309 310 312 313 314
226 227 228 227 226 225 224 225 226 226 227 229 231 233 235 236 238 239 240 242 243 245 246 247 248 249 250 250 250 250 250 250 251 253 254 256 257 258 257 257 257 257 257 258 260 261 262 262 263 265 266 268 270 273 275 276 276 277 278 279 280 280 281 282 283 283 284 285 287 290 292 294 295 296 298 299 301 303 305 306 307 309 311 312 313
Height
10662 10666 10671 10676 10679 10682 10685 10688 10691 10693 10696 10699 10702 10705 10709 10711 10712 10713 10716 10718 10719 10721 10720 10719 10719 10719 10717 10716 10716 10717 10718 10717 10716 10716 10714 10713 10713 10712 10712 10711 10710 10708 10706 10704 10703 10701 10699 10697 10695 10694 10693 10691 10689 10688 10686 10684 10682 10681 10679 10677 10675 10674 10672 10670 10667 10663 10660 10657 10654 10649 10645 10641 10637 10633 10628 10622 10615 10609 10604 10599 10593 10588 10581 10571 10561
10656 10660 10665 10670 10675 10678 10680 10682 10685 10688 10691 10694 10696 10699 10703 10706 10707 10708 10711 10713 10715 10717 10716 10714 10715 10714 10713 10711 10711 10712 10713 10712 10712 10711 10710 10709 10708 10707 10707 10706 10705 10703 10701 10700 10699 10697 10695 10693 10691 10690 10689 10687 10685 10684 10683 10682 10680 10678 10677 10674 10672 10670 10668 10666 10664 10660 10655 10653 10650 10645 10641 10638 10634 10628 10624 10620 10614 10607 10600 10595 10590 10584 10578 10571 10561
10651 10656 10660 10664 10668 10671 10674 10677 10679 10682 10686 10689 10691 10693 10697 10700 10701 10703 10705 10707 10709 10712 10712 10710 10710 10710 10708 10706 10706 10708 10708 10708 10707 10706 10705 10704 10703 10703 10703 10702 10700 10699 10698 10696 10695 10693 10691 10690 10688 10686 10685 10684 10682 10680 10679 10678 10677 10675 10673 10671 10669 10667 10665 10663 10660 10657 10652 10648 10645 10641 10636 10634 10631 10625 10619 10615 10610 10606 10600 10594 10588 10581 10575 10569 10562
10645 10649 10652 10656 10659 10663 10667 10671 10674 10677 10681 10684 10685 10688 10691 10694 10696 10698 10700 10702 10704 10706 10707 10706 10705 10705 10704 10702 10702 10703 10703 10703 10702 10701 10700 10700 10699 10698 10699 10699 10696 10695 10694 10693 10691 10689 10688 10687 10685 10683 10681 10680 10678 10677 10676 10675 10673 10671 10670 10668 10666 10664 10662 10659 10657 10655 10650 10645 10641 10638 10633 10628 10626 10622 10617 10611 10605 10600 10596 10592 10587 10581 10573 10566 10559
10636 10639 10642 10646 10652 10656 10659 10664 10669 10672 10675 10677 10679 10682 10685 10689 10692 10693 10695 10697 10698 10700 10702 10701 10701 10700 10699 10697 10697 10698 10699 10698 10697 10696 10696 10695 10694 10695 10695 10694 10692 10691 10690 10689 10688 10686 10685 10684 10682 10679 10678 10676 10675 10674 10673 10672 10670 10669 10667 10665 10663 10661 10659 10656 10653 10650 10647 10642 10637 10634 10630 10625 10621 10618 10615 10610 10603 10597 10591 10586 10581 10576 10570 10563 10556
10627 10631 10632 10635 10642 10648 10651 10656 10662 10666 10669 10671 10672 10676 10680 10683 10686 10689 10690 10692 10693 10695 10697 10697 10696 10695 10694 10693 10693 10694 10694 10694 10693 10692 10691 10691 10691 10691 10691 10690 10688 10688 10687 10685 10684 10683 10682 10681 10679 10677 10675 10674 10673 10672 10671 10670 10668 10666 10664 10662 10660 10657 10655 10652 10649 10646 10643 10639 10634 10630 10627 10622 10618 10614 10610 10607 10602 10596 10590 10585 10578 10571 10564 10557 10550
10620 10624 10627 10630 10636 10642 10645 10650 10655 10660 10662 10664 10666 10670 10674 10678 10681 10684 10685 10687 10688 10690 10692 10692 10691 10691 10690 10688 10688 10690 10690 10690 10689 10687 10686 10686 10687 10688 10687 10685 10684 10684 10683 10682 10681 10680 10679 10677 10675 10674 10673 10672 10670 10669 10668 10666 10665 10663 10661 10659 10656 10654 10651 10648 10645 10642 10638 10635 10631 10627 10623 10619 10615 10610 10606 10602 10597 10592 10588 10584 10578 10571 10564 10556 10548
10613 10618 10622 10626 10632 10637 10641 10645 10649 10653 10656 10658 10661 10665 10669 10672 10675 10678 10680 10682 10682 10684 10686 10687 10687 10687 10686 10684 10684 10685 10685 10685 10684 10682 10681 10682 10684 10684 10683 10681 10680 10680 10679 10678 10677 10676 10675 10674 10672 10671 10670 10669 10667 10666 10664 10663 10661 10659 10658 10655 10652 10650 10647 10644 10641 10638 10634 10631 10628 10624 10619 10615 10611 10607 10603 10597 10592 10588 10583 10579 10574 10569 10562 10555 10548
10606 10612 10616 10621 10627 10632 10636 10640 10644 10648 10651 10654 10657 10661 10664 10667 10669 10673 10675 10677 10677 10678 10680 10682 10683 10683 10682 10680 10680 10680 10681 10680 10679 10677 10676 10678 10680 10679 10678 10677 10677 10676 10675 10675 10674 10673 10671 10670 10669 10668 10667 10665 10663 10662 10661 10659 10658 10656 10654 10652 10649 10646 10643 10640 10637 10634 10631 10627 10624 10621 10616 10612 10607 10604 10599 10594 10589 10585 10579 10574 10569 10564 10557 10551 10544
10599 10605 10612 10618 10623 10628 10632 10636 10639 10642 10646 10650 10653 10656 10659 10662 10664 10667 10670 10671 10672 10673 10675 10677 10678 10678 10677 10677 10676 10676 10676 10675 10674 10673 10672 10674 10675 10675 10674 10673 10673 10672 10672 10671 10670 10669 10668 10667 10665 10664 10663 10662 10660 10659 10657 10656 10654 10652 10650 10648 10645 10642 10639 10636 10633 10631 10628 10624 10621 10617 10613 10609 10604 10600 10595 10590 10585 10582 10577 10572 10566 10560 10553 10546 10539
10593 10600 10608 10614 10618 10623 10627 10630 10634 10638 10642 10645 10648 10651 10653 10656 10660 10662 10665 10666 10667 10668 10671 10672 10673 10672 10672 10672 10672 10671 10671 10670 10669 10669 10669 10670 10671 10670 10669 10669 10669 10668 10668 10667 10666 10665 10664 10663 10662 10661 10660 10658 10657 10656 10654 10652 10650 10648 10646 10644 10641 10638 10636 10633 10630 10627 10624 10621 10618 10614 10611 10607 10601 10596 10592 10587 10581 10577 10574 10569 10563 10557 10551 10544 10537
10588 10595 10602 10608 10613 10617 10620 10624 10629 10634 10637 10640 10643 10645 10648 10651 10655 10658 10660 10661 10662 10664 10667 10667 10668 10667 10667 10668 10667 10667 10666 10666 10665 10664 10665 10666 10667 10665 10665 10665 10665 10665 10664 10663 10663 10662 10661 10660 10658 10657 10656 10654 10653 10652 10650 10649 10647 10645 10642 10640 10637 10635 10632 10630 10627 10624 10621 10618 10615 10611 10607 10603 10598 10592 10588 10584 10579 10574 10570 10565 10560 10554 10548 10541 10534
10583 10591 10596 10601 10607 10612 10615 10619 10624 10629 10632 10634 10637 10640 10644 10647 10651 10653 10655 10655 10657 10661 10663 10663 10663 10663 10663 10663 10663 10662 10661 10661 10660 10660 10661 10662 10662 10661 10661 10661 10661 10661 10660 10659 10659 10658 10657 10656 10654 10653 10652 10651 10649 10648 10647 10645 10643 10641 10639 10636 10634 10631 10629 10626 10623 10620 10617 10615 10611 10607 10602 10599 10594 10589 10584 10581 10577 10572 10567 10562 10557 10551 10545 10538 10531
10577 10585 10590 10595 10601 10606 10610 10615 10620 10624 10626 10627 10631 10636 10640 10644 10646 10648 10649 10650 10653 10656 10658 10658 10658 10658 10659 10658 10658 10658 10657 10655 10655 10656 10656 10658 10658 10657 10657 10657 10657 10657 10656 10656 10655 10654 10653 10652 10651 10649 10648 10647 10645 10644 10643 10641 10639 10637 10635 10632 10630 10627 10625 10623 10619 10616 10613 10610 10607 10603 10598 10594 10590 10585 10580 10577 10573 10569 10565 10560 10554 10548 10542 10535 10529
10569 10577 10584 10590 10595 10600 10605 10611 10615 10618 10620 10622 10627 10632 10636 10640 10642 10643 10644 10645 10647 10651 10653 10654 10654 10654 10654 10654 10654 10654 10652 10650 10650 10651 10652 10653 10653 10653 10653 10653 10653 10653 10652 10652 10652 10651 10649 10648 10647 10645 10644 10642 10641 10640 10638 10637 10635 10633 10631 10628 10625 10623 10621 10619 10616 10612 10609 10606 10602 10598 10594 10590 10586 10581 10576 10573 10570 10566 10562 10557 10551 10545 10539 10533 10526
10561 10569 10579 10586 10591 10596 10601 10606 10610 10613 10615 10617 10621 10627 10632 10636 10638 10638 10640 10641 10642 10645 10649 10650 10649 10649 10649 10649 10650 10649 10647 10645 10646 10647 10647 10649 10649 10648 10649 10649 10649 10649 10649 10648 10648 10647 10645 10644 10643 10641 10640 10638 10637 10636 10634 10632 10631 10629 10627 10624 10621 10618 10616 10615 10613 10609 10605 10601 10598 10594 10590 10585 10581 10576 10572 10569 10566 10562 10558 10553 10548 10542 10536 10529 10523
10553 10562 10573 10581 10587 10591 10595 10600 10605 10610 10611 10612 10617 10622 10627 10630 10633 10634 10635 10636 10637 10640 10644 10645 10644 10643 10644 10645 10646 10645 10642 10641 10642 10643 10643 10644 10644 10644 10645 10645 10645 10645 10644 10644 10644 10643 10641 10640 10638 10637 10635 10634 10633 10632 10630 10628 10626 10625 10623 10621 10617 10614 10611 10609 10608 10605 10601 10597 10593 10590 10586 10581 10576 10572 10569 10565 10562 10558 10554 10549 10544 10538 10532 10526 10519
10547 10556 10565 10574 10580 10584 10589 10594 10599 10605 10607 10608 10612 10617 10621 10625 10628 10630 10631 10632 10633 10635 10638 10639 10639 10639 10640 10640 10641 10640 10638 10636 10638 10639 10638 10639 10640 10640 10641 10641 10641 10640 10640 10640 10641 10639 10637 10635 10634 10634 10631 10629 10629 10628 10625 10623 10623 10621 10620 10617 10614 10610 10607 10604 10602 10599 10596 10593 10589 10585 10581 10577 10573 10569 10566 10563 10559 10555 10550 10545 10540 10534 10528 10522 10516
10539 10547 10556 10565 10572 10576 10582 10588 10594 10599 10601 10603 10607 10612 10616 10620 10624 10625 10626 10627 10628 10630 10633 10634 10634 10634 10634 10634 10636 10636 10634 10632 10634 10635 10634 10635 10636 10636 10636 10637 10637 10636 10635 10635 10636 10635 10633 10631 10630 10630 10627 10624 10624 10623 10621 10620 10619 10618 10616 10614 10610 10606 10602 10598 10596 10594 10591 10588 10585 10581 10577 10573 10569 10566 10563 10560 10556 10551 10546 10542 10537 10531 10525 10519 10513
10530 10538 10546 10555 10563 10570 10576 10582 10588 10593 10596 10599 10604 10608 10612 10616 10619 10621 10622 10622 10623 10625 10628 10629 10628 10628 10628 10629 10631 10632 10629 10627 10629 10630 10630 10631 10631 10631 10632 10633 10633 10632 10631 10631 10631 10630 10629 10626 10625 10625 10623 10620 10619 10618 10617 10616 10615 10613 10610 10609 10606 10603 10600 10595 10592 10590 10588 10584 10580 10577 10573 10569 10566 10563 10559 10556 10552 10547 10542 10538 10533 10528 10522 10516 10509
10522 10531 10539 10548 10555 10561 10567 10574 10582 10588 10594 10599 10604 10607 10609 10611 10615 10617 10615 10615 10617 10619 10622 10623 10622 10622 10623 10623 10625 10627 10625 10622 10624 10625 10625 10626 10626 10626 10628 10629 10628 10627 10627 10627 10627 10626 10624 10622 10620 10621 10620 10617 10614 10613 10612 10611 10609 10606 10605 10604 10601 10599 10597 10594 10590 10587 10584 10580 10576 10573 10569 10566 10563 10559 10556 10552 10547 10543 10539 10534 10529 10524 10518 10512 10506
10515 10525 10534 10542 10549 10556 10563 10570 10577 10582 10588 10596 10603 10607 10606 10605 10608 10610 10608 10608 10611 10614 10616 10617 10616 10616 10617 10617 10620 10622 10620 10617 10618 10620 10621 10621 10621 10622 10623 10623 10623 10622 10622 10623 10622 10620 10620 10617 10615 10616 10617 10614 10611 10609 10607 10606 10604 10601 10599 10598 10597 10595 10593 10590 10585 10582 10579 10576 10572 10569 10566 10563 10559 10556 10552 10548 10543 10539 10534 10530 10525 10520 10514 10509 10503
10508 10517 10527 10534 10542 10551 10558 10565 10571 10576 10581 10588 10596 10601 10602 10601 10601 10601 10600 10601 10605 10609 10610 10611 10610 10610 10611 10611 10614 10617 10614 10611 10612 10614 10616 10616 10617 10617 10617 10618 10618 10617 10617 10617 10616 10615 10615 10612 10609 10611 10612 10609 10606 10604 10601 10600 10599 10596 10593 10592 10592 10590 10588 10585 10581 10576 10574 10571 10568 10565 10562 10559 10556 10552 10548 10544 10540 10534 10529 10524 10519 10515 10510 10504 10499
10503 10512 10519 10526 10533 10541 10547 10555 10564 10570 10576 10584 10591 10595 10598 10597 10594 10593 10593 10595 10599 10603 10604 10604 10604 10604 10604 10605 10607 10611 10609 10605 10605 10608 10610 10611 10612 10612 10613 10613 10612 10611 10612 10612 10611 10610 10609 10606 10604 10605 10606 10604 10601 10598 10596 10595 10594 10591 10588 10587 10586 10584 10582 10580 10576 10572 10569 10567 10564 10561 10559 10555 10552 10548 10544 10540 10536 10531 10525 10520 10514 10508 10503 10497 10491
10499 10506 10512 10518 10525 10531 10539 10548 10558 10567 10575 10584 10589 10590 10592 10591 10588 10587 10588 10590 10594 10596 10597 10597 10597 10597 10597 10598 10601 10605 10602 10598 10599 10602 10604 10605 10606 10608 10608 10607 10606 10606 10606 10606 10606 10605 10603 10601 10599 10600 10599 10598 10595 10593 10592 10591 10589 10586 10584 10583 10581 10579 10577 10575 10572 10568 10565 10562 10560 10557 10555 10552 10548 10544 10540 10536 10532 10528 10522 10517 10511 10506 10500 10494 10488
10495 10500 10506 10511 10517 10524 10533 10542 10551 10561 10572 10581 10586 10587 10588 10588 10585 10583 10584 10585 10587 10588 10589 10589 10589 10590 10590 10591 10595 10598 10595 10592 10593 10596 10598 10599 10601 10602 10603 10602 10601 10601 10601 10600 10600 10600 10598 10596 10594 10593 10593 10591 10588 10587 10587 10586 10584 10581 10580 10578 10576 10574 10572 10570 10568 10564 10561 10558 10555 10553 10551 10547 10543 10540 10536 10532 10528 10525 10519 10513 10508 10503 10498 10493 10487
10487 10493 10499 10505 10511 10519 10526 10533 10542 10552 10561 10570 10577 10581 10583 10582 10579 10578 10578 10578 10579 10579 10580 10581 10581 10582 10583 10584 10587 10590 10590 10586 10585 10589 10592 10593 10595 10597 10597 10596 10596 10596 10596 10596 10595 10595 10594 10591 10588 10587 10587 10585 10582 10582 10583 10581 10579 10576 10575 10573 10571 10569 10567 10565 10563 10560 10557 10554 10551 10548 10546 10542 10539 10535 10531 10527 10523 10520 10516 10511 10505 10500 10495 10490 10485
10476 10484 10492 10499 10505 10512 10517 10523 10531 10541 10549 10557 10565 10570 10571 10569 10568 10568 10569 10569 10570 10570 10571 10572 10572 10574 10575 10576 10579 10584 10584 10579 10578 10582 10587 10588 10589 10592 10592 10590 10590 10591 10591 10591 10590 10590 10589 10586 10582 10581 10581 10579 10577 10578 10578 10576 10574 10572 10569 10567 10565 10563 10562 10561 10559 10556 10553 10549 10546 10544 10541 10538 10534 10531 10527 10522 10518 10514 10510 10506 10501 10496 10492 10487 10481
10464 10474 10484 10492 10498 10504 10509 10514 10519 10527 10536 10546 10556 10562 10563 10560 10558 10557 10558 10559 10561 10562 10563 10563 10563 10565 10567 10569 10573 10578 10577 10571 10571 10576 10582 10583 10585 10586 10585 10584 10585 10586 10587 10586 10585 10585 10584 10579 10575 10573 10573 10572 10572 10573 10572 10571 10569 10567 10564 10562 10560 10558 10557 10556 10554 10551 10548 10544 10541 10539 10536 10533 10529 10526 10522 10518 10514 10509 10505 10500 10495 10491 10486 10481 10476
10455 10465 10476 10484 10491 10497 10502 10507 10510 10515 10523 10534 10546 10554 10557 10556 10554 10551 10550 10551 10553 10555 10556 10556 10556 10558 10561 10564 10567 10569 10568 10565 10566 10572 10576 10578 10578 10579 10579 10578 10580 10581 10581 10581 10581 10580 10577 10573 10569 10567 10566 10566 10567 10567 10567 10565 10563 10561 10559 10556 10554 10552 10551 10550 10548 10545 10542 10539 10536 10534 10531 10528 10525 10521 10517 10513 10510 10506 10501 10496 10491 10486 10481 10477 10472
10449 10458 10468 10477 10485 10490 10495 10500 10505 10510 10514 10521 10530 10538 10544 10549 10550 10547 10544 10543 10546 10547 10548 10548 10549 10552 10555 10557 10559 10560 10561 10560 10562 10566 10570 10571 10572 10572 10573 10573 10575 10577 10577 10577 10577 10574 10570 10568 10566 10564 10561 10561 10561 10561 10561 10560 10558 10555 10553 10550 10548 10547 10546 10544 10542 10539 10536 10534 10532 10529 10526 10523 10519 10516 10512 10508 10505 10501 10497 10492 10487 10482 10477 10472 10467
10444 10452 10461 10469 10477 10484 10489 10494 10499 10504 10507 10511 10517 10524 10532 10540 10544 10542 10538 10537 10538 10540 10540 10541 10543 10545 10548 10551 10552 10553 10554 10554 10555 10559 10563 10564 10564 10565 10566 10568 10570 10572 10572 10572 10571 10568 10564 10562 10562 10560 10557 10556 10556 10556 10556 10554 10552 10550 10547 10544 10542 10541 10540 10539 10536 10533 10530 10529 10526 10524 10521 10518 10514 10511 10508 10504 10500 10496 10492 10488 10484 10479 10473 10468 10463
10439 10446 10455 10464 10471 10477 10484 10489 10494 10498 10502 10507 10512 10520 10527 10533 10537 10536 10532 10530 10531 10532 10534 10535 10536 10538 10542 10545 10546 10545 10546 10547 10549 10552 10556 10557 10557 10558 10560 10562 10565 10566 10566 10566 10565 10561 10559 10557 10556 10555 10553 10550 10549 10551 10550 10548 10546 10544 10542 10539 10537 10536 10535 10534 10531 10527 10525 10523 10520 10517 10516 10513 10509 10505 10502 10499 10495 10491 10486 10483 10479 10475 10470 10465 10460
10436 10441 10449 10458 10464 10471 10478 10485 10489 10492 10495 10500 10507 10515 10520 10523 10526 10527 10526 10524 10524 10526 10527 10528 10529 10531 10535 10539 10539 10537 10538 10540 10543 10546 10548 10550 10551 10552 10553 10556 10558 10559 10559 10559 10558 10555 10553 10551 10550 10549 10548 10544 10543 10544 10543 10542 10541 10539 10536 10534 10531 10530 10529 10529 10526 10523 10520 10517 10514 10511 10509 10508 10505 10500 10496 10492 10489 10485 10481 10477 10473 10469 10465 10460 10455
10431 10435 10442 10451 10459 10466 10472 10478 10482 10486 10490 10493 10500 10508 10513 10516 10519 10520 10519 10517 10519 10521 10521 10521 10521 10523 10527 10531 10531 10530 10531 10534 10536 10539 10541 10543 10544 10545 10547 10549 10551 10551 10551 10552 10551 10549 10546 10545 10545 10544 10541 10539 10538 10538 10537 10535 10534 10533 10531 10528 10526 10524 10523 10522 10520 10518 10515 10512 10509 10506 10502 10500 10498 10496 10491 10487 10483 10479 10475 10471 10467 10463 10459 10454 10449
10424 10428 10434 10443 10450 10457 10464 10469 10474 10479 10484 10489 10495 10500 10504 10509 10513 10512 10510 10513 10517 10519 10516 10514 10514 10516 10520 10524 10525 10525 10525 10527 10530 10532 10534 10536 10537 10538 10540 10542 10543 10544 10545 10545 10545 10542 10541 10540 10539 10537 10535 10534 10533 10531 10530 10529 10528 10526 10525 10522 10520 10518 10517 10515 10513 10511 10509 10506 10503 10501 10498 10494 10491 10489 10486 10482 10478 10474 10470 10465 10461 10457 10453 10448 10444
10416 10420 10425 10431 10436 10443 10452 10460 10465 10470 10476 10483 10488 10489 10492 10499 10503 10503 10504 10509 10514 10514 10511 10508 10507 10509 10513 10517 10518 10518 10518 10520 10523 10525 10527 10528 10529 10531 10533 10534 10536 10537 10537 10537 10537 10536 10535 10534 10532 10529 10528 10528 10527 10524 10522 10521 10520 10520 10519 10516 10513 10512 10512 10509 10506 10504 10501 10499 10497 10495 10493 10489 10485 10483 10480 10476 10473 10469 10465 10460 10456 10452 10447 10443 10439
10408 10413 10419 10422 10425 10431 10440 10449 10455 10461 10469 10476 10479 10479 10482 10489 10493 10494 10498 10503 10506 10507 10505 10502 10502 10507 10512 10513 10510 10508 10508 10512 10516 10518 10519 10520 10521 10523 10525 10527 10529 10530 10529 10529 10529 10529 10528 10527 10524 10522 10520 10520 10519 10517 10515 10513 10513 10513 10512 10509 10507 10506 10506 10504 10501 10498 10495 10491 10489 10489 10487 10483 10480 10477 10474 10470 10467 10463 10459 10455 10451 10447 10442 10438 10433
10400 10406 10412 10417 10420 10425 10432 10440 10446 10452 10459 10464 10466 10468 10472 10478 10482 10485 10490 10495 10498 10501 10501 10498 10499 10508 10513 10509 10503 10500 10500 10503 10508 10511 10512 10512 10513 10515 10518 10521 10521 10521 10521 10521 10522 10521 10520 10519 10518 10515 10513 10512 10511 10509 10506 10505 10505 10505 10503 10502 10501 10499 10498 10497 10495 10492 10489 10485 10482 10481 10480 10477 10474 10471 10468 10464 10461 10457 10454 10450 10446 10442 10438 10433 10429
10394 10399 10405 10411 10416 10421 10427 10432 10438 10443 10448 10453 10457 10460 10464 10467 10470 10473 10478 10483 10488 10493 10495 10492 10494 10504 10507 10500 10493 10493 10495 10497 10501 10505 10505 10505 10506 10509 10512 10514 10513 10513 10513 10514 10514 10513 10513 10512 10512 10509 10506 10504 10503 10499 10495 10495 10496 10495 10494 10495 10494 10491 10490 10489 10488 10486 10483 10479 10476 10474 10472 10470 10468 10465 10462 10458 10455 10451 10448 10445 10441 10436 10432 10428 10424
10387 10393 10399 10405 10411 10416 10420 10425 10429 10433 10438 10443 10448 10452 10456 10459 10460 10461 10463 10467 10472 10478 10482 10482 10484 10491 10495 10489 10482 10483 10488 10491 10495 10498 10499 10499 10499 10501 10504 10505 10505 10504 10505 10505 10506 10506 10505 10504 10504 10504 10500 10497 10494 10489 10486 10487 10486 10484 10485 10487 10486 10483 10482 10482 10480 10478 10477 10474 10470 10468 10466 10463 10461 10458 10456 10452 10449 10445 10442 10438 10435 10432 10427 10423 10418
10382 10388 10393 10399 10404 10409 10414 10418 10422 10425 10429 10433 10438 10442 10447 10451 10453 10452 10452 10455 10458 10462 10467 10469 10471 10475 10479 10478 10474 10476 10481 10485 10488 10491 10492 10492 10492 10493 10496 10497 10497 10497 10497 10497 10499 10499 10497 10496 10496 10496 10493 10489 10484 10481 10480 10481 10478 10475 10477 10480 10479 10477 10476 10475 10472 10470 10469 10467 10465 10463 10461 10457 10454 10452 10449 10446 10443 10439 10436 10432 10428 10425 10422 10417 10413
10378 10382 10386 10391 10396 10401 10406 10410 10414 10418 10422 10425 10429 10433 10438 10443 10446 10446 10445 10446 10449 10452 10456 10460 10462 10463 10466 10468 10470 10473 10475 10478 10481 10483 10483 10483 10483 10485 10488 10489 10490 10490 10489 10490 10491 10492 10490 10489 10489 10488 10486 10482 10476 10473 10474 10474 10470 10468 10469 10472 10472 10470 10469 10468 10466 10463 10461 10459 10458 10456 10454 10451 10448 10445 10443 10440 10437 10433 10430 10426 10423 10419 10415 10411 10407
10372 10376 10380 10384 10388 10393 10397 10402 10406 10410 10414 10418 10422 10426 10430 10434 10438 10439 10440 10440 10442 10445 10449 10451 10453 10455 10458 10461 10465 10468 10470 10471 10473 10473 10474 10473 10474 10477 10480 10482 10482 10482 10481 10483 10485 10484 10482 10481 10480 10479 10477 10474 10469 10467 10467 10467 10463 10461 10461 10464 10466 10465 10463 10461 10459 10456 10453 10453 10452 10449 10446 10444 10442 10439 10436 10433 10430 10427 10423 10420 10417 10413 10409 10406 10402
10366 10370 10374 10378 10381 10385 10390 10394 10398 10401 10405 10410 10414 10419 10423 10426 10429 10431 10433 10434 10436 10438 10441 10443 10445 10448 10451 10454 10458 10461 10462 10463 10463 10463 10464 10465 10467 10469 10471 10472 10473 10473 10473 10475 10476 10475 10474 10473 10472 10471 10469 10466 10462 10461 10460 10459 10456 10454 10453 10455 10458 10459 10458 10456 10453 10449 10446 10446 10445 10442 10438 10435 10434 10432 10429 10425 10422 10420 10417 10414 10410 10406 10403 10399 10396
10359 10363 10367 10371 10375 10379 10382 10386 10390 10393 10397 10401 10405 10410 10414 10417 10420 10422 10424 10426 10427 10429 10432 10434 10437 10440 10443 10446 10449 10451 10451 10452 10452 10453 10455 10456 10457 10459 10461 10463 10464 10465 10465 10465 10466 10466 10465 10464 10463 10463 10462 10459 10455 10452 10451 10450 10449 10448 10446 10447 10449 10452 10451 10449 10446 10443 10440 10439 10438 10435 10431 10427 10425 10425 10423 10419 10415 10412 10409 10407 10404 10400 10396 10393 10390
10353 10356 10360 10364 10368 10372 10375 10378 10382 10386 10389 10392 10396 10400 10403 10407 10410 10412 10414 10416 10418 10420 10423 10426 10429 10432 10435 10438 10441 10442 10442 10442 10444 10445 10446 10446 10447 10450 10452 10454 10455 10456 10455 10455 10456 10456 10456 10455 10455 10453 10451 10448 10446 10444 10443 10442 10441 10442 10441 10441 10442 10443 10441 10440 10438 10436 10432 10430 10430 10428 10424 10419 10417 10416 10415 10412 10409 10405 10401 10399 10397 10393 10390 10387 10383
10347 10350 10353 10357 10361 10365 10369 10372 10375 10378 10381 10384 10387 10390 10393 10397 10400 10403 10405 10407 10409 10412 10415 10417 10421 10424 10427 10430 10433 10435 10434 10433 10434 10435 10435 10436 10438 10441 10443 10443 10444 10446 10447 10446 10446 10446 10446 10446 10445 10442 10438 10436 10437 10437 10436 10434 10434 10434 10434 10434 10434 10434 10433 10432 10430 10427 10424 10422 10421 10420 10416 10412 10410 10408 10406 10404 10402 10398 10394 10391 10389 10386 10383 10380 10376
10341 10343 10347 10350 10354 10358 10362 10365 10368 10371 10374 10377 10379 10381 10385 10388 10391 10393 10396 10398 10401 10404 10407 10410 10413 10416 10419 10422 10425 10426 10425 10424 10424 10425 10427 10428 10430 10432 10434 10434 10435 10437 10438 10436 10435 10436 10435 10435 10433 10431 10429 10428 10429 10428 10428 10428 10427 10427 10426 10426 10426 10425 10426 10425 10422 10418 10416 10414 10413 10411 10408 10405 10403 10400 10397 10396 10394 10391 10388 10384 10381 10379 10376 10373 10369
10335 10337 10339 10343 10346 10350 10354 10357 10360 10363 10367 10369 10371 10373 10376 10379 10381 10383 10386 10390 10394 10397 10399 10402 10404 10407 10410 10412 10414 10416 10417 10417 10416 10417 10418 10419 10420 10422 10425 10425 10426 10427 10427 10426 10426 10426 10425 10423 10423 10423 10422 10422 10420 10419 10419 10421 10421 10420 10419 10419 10418 10418 10418 10417 10414 10411 10408 10407 10405 10403 10401 10399 10395 10392 10389 10387 10385 10384 10381 10378 10374 10371 10368 10365 10361
10329 10331 10333 10336 10339 10343 10346 10349 10352 10355 10359 10361 10363 10366 10369 10371 10372 10374 10378 10382 10385 10388 10390 10393 10395 10398 10401 10403 10404 10406 10408 10408 10409 10409 10410 10410 10411 10413 10415 10415 10415 10415 10416 10416 10416 10416 10415 10414 10414 10415 10415 10414 10413 10412 10412 10412 10412 10412 10411 10411 10411 10410 10410 10408 10406 10403 10402 10400 10398 10396 10394 10391 10388 10385 10382 10379 10376 10374 10372 10370 10367 10364 10360 10357 10354